User: anonymous   Login
Location: Unnamed Road
(35.9029°N, 51.9749°E)
Time: 08:38:18
(UTC+04:30)
Language:

S-56A Canister/Altair - Orbit

View from above orbital plane
View from above orbital plane
View from above satellite
View from above satellite

Ground track
Ground track

The orbit data is extracted from the following two-line orbital elements,

1    82U 61004B   20157.59094954 -.00000078 +00000-0 -14527-4 0  9991
2    82 038.8556 242.3130 1174000 026.3229 339.2560 12.26063058806352
Epoch (UTC): 05 June 2020 14:10:58
Eccentricity: 0.1174000
inclination: 38.8556°
perigee height: 633 km
apogee height: 2499 km
right ascension of ascending node: 242.3130°
argument of perigee: 26.3229°
revolutions per day: 12.26063058
mean anomaly at epoch: 339.2560°
orbit number at epoch: 80635

The dashed part of the orbit path shows where the satellite is in the earth's shadow,  

DLR